Find Starlink 4718

NORAD ID: 53773 Int'l Des: 2022-111 Owner: SPXS Country: US Constellation: starlink operational
LEOCIRCULAR

实时位置

正在加载3D地球...

关于 Starlink 4718

正在加载描述...

即将过境

Passes for default location (London). Set your location on the main map for personalized predictions.

高度历史

Loading altitude history...

两行轨道根数

1 53773U 22111A 26120.99787272 -.00000607 00000-0 -20040-4 0 9999
2 53773 53.2184 49.2220 0001418 82.9765 277.1388 15.08845246201743
Epoch: Apr 30, 2026 • Age: 23 hours

当前状态

高度 550.7 km
速度 7.59 km/s
星下点 -32.71°S, 45.72°E
发射日期 Sep 11, 2022
运行时间 3.6 years
类型 internet

技术详情

分类 Payload
质量 305.00 kg
干质量 290.00 kg
总质量 305.00 kg
长度 0.20 m
直径 2.80 m
跨度 9.00 m
形状 Box + pan
制造商 SPXS
平台类型 Starlink
阶段状态 In Orbit
所有者/国家 SPXS/US

Most Searched